Year,Month,Day,Hour,Minute,Value (Times are PST for temperature in C)
2009,05,05,09,08,8.30
2009,05,05,09,09,8.30
2009,05,05,09,10,8.30
2009,05,05,09,11,8.30
2009,05,05,09,12,8.30
2009,05,05,09,13,8.30
2009,05,05,09,14,8.30
2009,05,05,09,15,8.30
2009,05,05,09,16,8.30
2009,05,05,09,17,8.30
2009,05,05,09,18,8.30
2009,05,05,09,19,8.30
2009,05,05,09,20,8.30
2009,05,05,09,21,8.30
2009,05,05,09,22,8.30
2009,05,05,09,23,8.20
2009,05,05,09,24,8.20
2009,05,05,09,25,8.20
2009,05,05,09,26,8.20
2009,05,05,09,27,8.20
2009,05,05,09,28,8.20
2009,05,05,09,29,8.20
2009,05,05,09,30,8.20
2009,05,05,09,31,8.20
2009,05,05,09,32,8.20
2009,05,05,09,33,8.20
2009,05,05,09,34,8.20
2009,05,05,09,35,8.20
2009,05,05,09,36,8.20
2009,05,05,09,37,8.30
2009,05,05,09,38,8.30
2009,05,05,09,39,8.30
2009,05,05,09,40,8.30
2009,05,05,09,41,8.30
2009,05,05,09,42,8.30
2009,05,05,09,43,8.30
2009,05,05,09,44,8.30
2009,05,05,09,45,8.30
2009,05,05,09,46,8.40
2009,05,05,09,47,8.40
2009,05,05,09,48,8.40
2009,05,05,09,49,8.50
2009,05,05,09,50,8.50
2009,05,05,09,51,8.50
2009,05,05,09,52,8.50
2009,05,05,09,53,8.60
2009,05,05,09,54,8.60
2009,05,05,09,55,8.60
2009,05,05,09,56,8.60
2009,05,05,09,57,8.70
2009,05,05,09,58,8.70
2009,05,05,09,59,8.70
2009,05,05,10,00,8.80
2009,05,05,10,01,8.80
2009,05,05,10,02,8.80
2009,05,05,10,03,8.80
2009,05,05,10,04,8.80
2009,05,05,10,05,8.80
2009,05,05,10,06,8.90
2009,05,05,10,07,8.80
2009,05,05,10,08,8.90
2009,05,05,10,09,8.90
2009,05,05,10,10,8.90
2009,05,05,10,11,8.90
2009,05,05,10,12,8.90
2009,05,05,10,13,8.90
2009,05,05,10,14,9.00
2009,05,05,10,15,9.10
2009,05,05,10,16,9.10
2009,05,05,10,17,9.10
2009,05,05,10,18,9.10
2009,05,05,10,19,9.20
2009,05,05,10,20,9.20
2009,05,05,10,21,9.30
2009,05,05,10,22,9.30
2009,05,05,10,23,9.40
2009,05,05,10,24,9.50
2009,05,05,10,25,9.60
2009,05,05,10,26,9.60
2009,05,05,10,27,9.70
2009,05,05,10,28,9.80
2009,05,05,10,29,9.90
2009,05,05,10,30,10.00
2009,05,05,10,31,10.10
2009,05,05,10,32,10.10
2009,05,05,10,33,10.20
2009,05,05,10,34,10.20
2009,05,05,10,35,10.20
2009,05,05,10,36,10.20
2009,05,05,10,37,10.20
2009,05,05,10,38,10.30
2009,05,05,10,39,10.30
2009,05,05,10,40,10.40
2009,05,05,10,41,10.40
2009,05,05,10,42,10.40
2009,05,05,10,43,10.50
2009,05,05,10,44,10.50
2009,05,05,10,45,10.50
2009,05,05,10,46,10.50
2009,05,05,10,47,10.60
2009,05,05,10,48,10.60
2009,05,05,10,49,10.70
2009,05,05,10,50,10.70
2009,05,05,10,51,10.70
2009,05,05,10,52,10.70
2009,05,05,10,53,10.80
2009,05,05,10,54,10.80
2009,05,05,10,55,10.80
2009,05,05,10,56,10.80
2009,05,05,10,57,10.80
2009,05,05,10,58,10.70
2009,05,05,10,59,10.70
2009,05,05,11,00,10.70
2009,05,05,11,01,10.70
2009,05,05,11,02,10.60
2009,05,05,11,03,10.60
2009,05,05,11,04,10.60
2009,05,05,11,05,10.60
2009,05,05,11,06,10.60
2009,05,05,11,07,10.50
2009,05,05,11,08,10.50
2009,05,05,11,09,10.60
2009,05,05,11,10,10.60
2009,05,05,11,11,10.60
2009,05,05,11,12,10.60
2009,05,05,11,13,10.70
2009,05,05,11,14,10.70
2009,05,05,11,15,10.70
2009,05,05,11,16,10.70
2009,05,05,11,17,10.70
2009,05,05,11,18,10.80
2009,05,05,11,19,10.80
2009,05,05,11,20,10.80
2009,05,05,11,21,10.80
2009,05,05,11,22,10.90
2009,05,05,11,23,10.90
2009,05,05,11,24,10.90
2009,05,05,11,25,10.90
2009,05,05,11,26,10.90
2009,05,05,11,27,10.80
2009,05,05,11,28,10.80
2009,05,05,11,29,10.80
2009,05,05,11,30,10.80
2009,05,05,11,31,10.80
2009,05,05,11,32,10.80
2009,05,05,11,33,10.90
2009,05,05,11,34,10.80
2009,05,05,11,35,10.80
2009,05,05,11,36,10.90
2009,05,05,11,37,10.90
2009,05,05,11,38,10.90
2009,05,05,11,39,10.90
2009,05,05,11,40,10.90
2009,05,05,11,41,10.90
2009,05,05,11,42,10.90
2009,05,05,11,43,10.80
2009,05,05,11,44,10.90
2009,05,05,11,45,10.90
2009,05,05,11,46,10.90
2009,05,05,11,47,10.90
2009,05,05,11,48,10.90
2009,05,05,11,49,10.90
2009,05,05,11,50,11.00
2009,05,05,11,51,11.00
2009,05,05,11,52,11.00
2009,05,05,11,53,11.00
2009,05,05,11,54,11.00
2009,05,05,11,55,11.00
2009,05,05,11,56,11.00
2009,05,05,11,57,10.90
2009,05,05,11,58,11.00
2009,05,05,11,59,11.00
2009,05,05,12,00,11.00
2009,05,05,12,01,11.00
2009,05,05,12,02,11.00
2009,05,05,12,03,11.00
2009,05,05,12,04,11.00
2009,05,05,12,05,11.00
2009,05,05,12,06,11.00
2009,05,05,12,07,11.00
2009,05,05,12,08,11.00
2009,05,05,12,09,11.00
2009,05,05,12,10,11.00
2009,05,05,12,11,11.10
2009,05,05,12,12,11.10
2009,05,05,12,13,11.10
2009,05,05,12,14,11.10
2009,05,05,12,15,11.00
2009,05,05,12,16,10.90
2009,05,05,12,17,10.90
2009,05,05,12,18,11.00
2009,05,05,12,19,11.00
2009,05,05,12,20,11.00
2009,05,05,12,21,10.90
2009,05,05,12,22,10.90
2009,05,05,12,23,10.90
2009,05,05,12,24,10.90
2009,05,05,12,25,10.90
2009,05,05,12,26,10.90
2009,05,05,12,27,11.00
2009,05,05,12,28,11.00
2009,05,05,12,29,11.00
2009,05,05,12,30,11.00
2009,05,05,12,31,11.00
2009,05,05,12,32,11.00
2009,05,05,12,33,10.90
2009,05,05,12,34,10.90
2009,05,05,12,35,10.90
2009,05,05,12,36,11.00
2009,05,05,12,37,11.00
2009,05,05,12,38,11.10
2009,05,05,12,39,11.10
2009,05,05,12,40,11.10
2009,05,05,12,41,11.00
2009,05,05,12,42,11.00
2009,05,05,12,43,11.00
2009,05,05,12,44,11.00
2009,05,05,12,45,11.00
2009,05,05,12,46,11.10
2009,05,05,12,47,11.10
2009,05,05,12,48,11.10
2009,05,05,12,49,11.10
2009,05,05,12,50,11.10
2009,05,05,12,51,11.10
2009,05,05,12,52,11.10
2009,05,05,12,53,11.10
2009,05,05,12,54,11.20
2009,05,05,12,55,11.20
2009,05,05,12,56,11.20
2009,05,05,12,57,11.20
2009,05,05,12,58,11.20
2009,05,05,12,59,11.20
2009,05,05,13,00,11.20
2009,05,05,13,01,11.30
2009,05,05,13,02,11.30
2009,05,05,13,03,11.40
2009,05,05,13,04,11.40
2009,05,05,13,05,11.40
2009,05,05,13,06,11.50
2009,05,05,13,07,11.50
2009,05,05,13,08,11.60
2009,05,05,13,09,11.60
2009,05,05,13,10,11.70
2009,05,05,13,11,11.80
2009,05,05,13,12,11.80
2009,05,05,13,13,11.90
2009,05,05,13,14,11.90
2009,05,05,13,15,11.90
2009,05,05,13,16,12.00
2009,05,05,13,17,12.10
2009,05,05,13,18,12.20
2009,05,05,13,19,12.30
2009,05,05,13,20,12.40
2009,05,05,13,21,12.40
2009,05,05,13,22,12.50
2009,05,05,13,23,12.50
2009,05,05,13,24,12.60
2009,05,05,13,25,12.60
2009,05,05,13,26,12.60
2009,05,05,13,27,12.60
2009,05,05,13,28,12.60
2009,05,05,13,29,12.70
2009,05,05,13,30,12.70
2009,05,05,13,31,12.70
2009,05,05,13,32,12.80
2009,05,05,13,33,12.80
2009,05,05,13,34,12.80
2009,05,05,13,35,12.90
2009,05,05,13,36,13.00
2009,05,05,13,37,13.00
2009,05,05,13,38,13.10
2009,05,05,13,39,13.20
2009,05,05,13,40,13.20
2009,05,05,13,41,13.20
2009,05,05,13,42,13.30
2009,05,05,13,43,13.30
2009,05,05,13,44,13.30
2009,05,05,13,45,13.40
2009,05,05,13,46,13.50
2009,05,05,13,47,13.60
2009,05,05,13,48,13.70
2009,05,05,13,49,13.80
2009,05,05,13,50,13.90
2009,05,05,13,51,13.90
2009,05,05,13,52,13.90
2009,05,05,13,53,13.90
2009,05,05,13,54,13.90
2009,05,05,13,55,13.90
2009,05,05,13,56,14.00
2009,05,05,13,57,13.90
2009,05,05,13,58,14.00
2009,05,05,13,59,14.00
2009,05,05,14,00,14.10
2009,05,05,14,01,14.10
2009,05,05,14,02,14.20
2009,05,05,14,03,14.20
2009,05,05,14,04,14.20
2009,05,05,14,05,14.20
2009,05,05,14,06,14.30
2009,05,05,14,07,14.30
2009,05,05,14,08,14.40
2009,05,05,14,09,14.50
2009,05,05,14,10,14.60
2009,05,05,14,11,14.50
2009,05,05,14,12,14.50
2009,05,05,14,13,14.50
2009,05,05,14,14,14.40
2009,05,05,14,15,14.40
2009,05,05,14,16,14.30
2009,05,05,14,17,14.20
2009,05,05,14,18,14.10
2009,05,05,14,19,14.10
2009,05,05,14,20,14.00
2009,05,05,14,21,14.00
2009,05,05,14,22,14.00
2009,05,05,14,23,14.00
2009,05,05,14,24,14.00
2009,05,05,14,25,14.00
2009,05,05,14,26,13.90
2009,05,05,14,27,13.90
2009,05,05,14,28,13.90
2009,05,05,14,29,13.90
2009,05,05,14,30,13.90
2009,05,05,14,31,13.90
2009,05,05,14,32,14.00
2009,05,05,14,33,14.00
2009,05,05,14,34,14.00
2009,05,05,14,35,14.00
2009,05,05,14,36,13.90
2009,05,05,14,37,13.90
2009,05,05,14,38,13.90
2009,05,05,14,39,13.90
2009,05,05,14,40,13.80
2009,05,05,14,41,13.80
2009,05,05,14,42,13.80
2009,05,05,14,43,13.70
2009,05,05,14,44,13.70
2009,05,05,14,45,13.80
2009,05,05,14,46,13.80
2009,05,05,14,47,13.80
2009,05,05,14,48,13.90
2009,05,05,14,49,14.00
2009,05,05,14,50,14.00
2009,05,05,14,51,14.10
2009,05,05,14,52,14.00
2009,05,05,14,53,13.90
2009,05,05,14,54,13.80
2009,05,05,14,55,13.80
2009,05,05,14,56,13.80
2009,05,05,14,57,13.70
2009,05,05,14,58,13.80
2009,05,05,14,59,13.80
2009,05,05,15,00,13.80
2009,05,05,15,01,13.80
2009,05,05,15,02,13.70
2009,05,05,15,03,13.50
2009,05,05,15,04,13.40
2009,05,05,15,05,13.30
2009,05,05,15,06,13.20
2009,05,05,15,07,13.10
2009,05,05,15,08,13.10
2009,05,05,15,09,13.00
2009,05,05,15,10,12.90
2009,05,05,15,11,12.90
2009,05,05,15,12,12.80
2009,05,05,15,13,12.80
2009,05,05,15,14,12.80
2009,05,05,15,15,12.80
2009,05,05,15,16,12.80
2009,05,05,15,17,12.80
2009,05,05,15,18,12.70
2009,05,05,15,19,12.70
2009,05,05,15,20,12.70
2009,05,05,15,21,12.70
2009,05,05,15,22,12.70
2009,05,05,15,23,12.70
2009,05,05,15,24,12.70
2009,05,05,15,25,12.70
2009,05,05,15,26,12.70
2009,05,05,15,27,12.70
2009,05,05,15,28,12.70
2009,05,05,15,29,12.70
2009,05,05,15,30,12.80
2009,05,05,15,31,12.80
2009,05,05,15,32,12.80
2009,05,05,15,33,12.80
2009,05,05,15,34,12.90
2009,05,05,15,35,13.00
2009,05,05,15,36,13.00
2009,05,05,15,37,13.10
2009,05,05,15,38,13.10
2009,05,05,15,39,13.10
2009,05,05,15,40,13.20
2009,05,05,15,41,13.20
2009,05,05,15,42,13.30
2009,05,05,15,43,13.40
2009,05,05,15,44,13.40
2009,05,05,15,45,13.50
2009,05,05,15,46,13.60
2009,05,05,15,47,13.70
2009,05,05,15,48,13.80
2009,05,05,15,49,13.80
2009,05,05,15,50,13.80
2009,05,05,15,51,13.80
2009,05,05,15,52,13.80
2009,05,05,15,53,13.80
2009,05,05,15,54,13.80
2009,05,05,15,55,13.80
2009,05,05,15,56,13.90
2009,05,05,15,57,13.90
2009,05,05,15,58,14.00
2009,05,05,15,59,13.90
2009,05,05,16,00,14.00
2009,05,05,16,01,13.90
2009,05,05,16,02,13.90
2009,05,05,16,03,13.80
2009,05,05,16,04,13.80
2009,05,05,16,05,13.80
2009,05,05,16,06,13.90
2009,05,05,16,07,14.00
2009,05,05,16,08,14.10
2009,05,05,16,09,14.20
2009,05,05,16,10,14.30
2009,05,05,16,11,14.50
2009,05,05,16,12,14.60
2009,05,05,16,13,14.70
2009,05,05,16,14,14.70
2009,05,05,16,15,14.70
2009,05,05,16,16,14.80
2009,05,05,16,17,14.90
2009,05,05,16,18,15.00
2009,05,05,16,19,15.00
2009,05,05,16,20,15.00
2009,05,05,16,21,15.00
2009,05,05,16,22,14.90
2009,05,05,16,23,14.70
2009,05,05,16,24,14.50
2009,05,05,16,25,14.40
2009,05,05,16,26,14.20
2009,05,05,16,27,14.10
2009,05,05,16,28,14.10
2009,05,05,16,29,14.20
2009,05,05,16,30,14.20
2009,05,05,16,31,14.30
2009,05,05,16,32,14.40
2009,05,05,16,33,14.40
2009,05,05,16,34,14.40
2009,05,05,16,35,14.40
2009,05,05,16,36,14.50
2009,05,05,16,37,14.60
2009,05,05,16,38,14.70
2009,05,05,16,39,14.70
2009,05,05,16,40,14.50
2009,05,05,16,41,14.30
2009,05,05,16,42,14.20
2009,05,05,16,43,14.20
2009,05,05,16,44,14.10
2009,05,05,16,45,14.00
2009,05,05,16,46,13.90
2009,05,05,16,47,13.90
2009,05,05,16,48,14.00
2009,05,05,16,49,14.00
2009,05,05,16,50,14.10
2009,05,05,16,51,14.20
2009,05,05,16,52,14.20
2009,05,05,16,53,14.30
2009,05,05,16,54,14.30
2009,05,05,16,55,14.30
2009,05,05,16,56,14.40
2009,05,05,16,57,14.50
2009,05,05,16,58,14.50
2009,05,05,16,59,14.60
2009,05,05,17,00,14.60
2009,05,05,17,01,14.60
2009,05,05,17,02,14.50
2009,05,05,17,03,14.40
2009,05,05,17,04,14.40
2009,05,05,17,05,14.40
2009,05,05,17,06,14.40
2009,05,05,17,07,14.30
2009,05,05,17,08,14.20
2009,05,05,17,09,14.10
2009,05,05,17,10,13.90
2009,05,05,17,11,13.80
2009,05,05,17,12,13.60
2009,05,05,17,13,13.50
2009,05,05,17,14,13.60
2009,05,05,17,15,13.50
2009,05,05,17,16,13.50
2009,05,05,17,17,13.60
2009,05,05,17,18,13.60
2009,05,05,17,19,13.60
2009,05,05,17,20,13.60
2009,05,05,17,21,13.70
2009,05,05,17,22,13.80
2009,05,05,17,23,13.90
2009,05,05,17,24,14.00
2009,05,05,17,25,14.00
2009,05,05,17,26,13.90
2009,05,05,17,27,14.00
2009,05,05,17,28,13.90
2009,05,05,17,29,13.80
2009,05,05,17,30,13.80
2009,05,05,17,31,13.70
2009,05,05,17,32,13.70
2009,05,05,17,33,13.70
2009,05,05,17,34,13.80
2009,05,05,17,35,13.80
2009,05,05,17,36,13.80
2009,05,05,17,37,13.80
2009,05,05,17,38,13.70
2009,05,05,17,39,13.70
2009,05,05,17,40,13.70
2009,05,05,17,41,13.70
2009,05,05,17,42,13.70
2009,05,05,17,43,13.70
2009,05,05,17,44,13.70
2009,05,05,17,45,13.70
2009,05,05,17,46,13.80
2009,05,05,17,47,13.80
2009,05,05,17,48,13.70
2009,05,05,17,49,13.60
2009,05,05,17,50,13.50
2009,05,05,17,51,13.50
2009,05,05,17,52,13.40
2009,05,05,17,53,13.30
2009,05,05,17,54,13.30
2009,05,05,17,55,13.30
2009,05,05,17,56,13.30
2009,05,05,17,57,13.30
2009,05,05,17,58,13.20
2009,05,05,17,59,13.20
2009,05,05,18,00,13.20
2009,05,05,18,01,13.10
2009,05,05,18,02,13.10
2009,05,05,18,03,13.00
2009,05,05,18,04,12.90
2009,05,05,18,05,12.80
2009,05,05,18,06,12.80
2009,05,05,18,07,12.70
2009,05,05,18,08,12.70
2009,05,05,18,09,12.70
2009,05,05,18,10,12.60
2009,05,05,18,11,12.60
2009,05,05,18,12,12.60
2009,05,05,18,13,12.60
2009,05,05,18,14,12.70
2009,05,05,18,15,12.70
2009,05,05,18,16,12.70
2009,05,05,18,17,12.70
2009,05,05,18,18,12.70
2009,05,05,18,19,12.70
2009,05,05,18,20,12.70
2009,05,05,18,21,12.70
2009,05,05,18,22,12.70
2009,05,05,18,23,12.70
2009,05,05,18,24,12.60
2009,05,05,18,25,12.60
2009,05,05,18,26,12.70
2009,05,05,18,27,12.70
2009,05,05,18,28,12.70
2009,05,05,18,29,12.70
2009,05,05,18,30,12.70
2009,05,05,18,31,12.70
2009,05,05,18,32,12.70
2009,05,05,18,33,12.70
2009,05,05,18,34,12.70
2009,05,05,18,35,12.70
2009,05,05,18,36,12.60
2009,05,05,18,37,12.60
2009,05,05,18,38,12.60
2009,05,05,18,39,12.60
2009,05,05,18,40,12.50
2009,05,05,18,41,12.50
2009,05,05,18,42,12.50
2009,05,05,18,43,12.50
2009,05,05,18,44,12.40
2009,05,05,18,45,12.50
2009,05,05,18,46,12.50
2009,05,05,18,47,12.40
2009,05,05,18,48,12.40
2009,05,05,18,49,12.50
2009,05,05,18,50,12.50
2009,05,05,18,51,12.50
2009,05,05,18,52,12.50
2009,05,05,18,53,12.50
2009,05,05,18,54,12.50
2009,05,05,18,55,12.40
2009,05,05,18,56,12.40
2009,05,05,18,57,12.40
2009,05,05,18,58,12.40
2009,05,05,18,59,12.40
2009,05,05,19,00,12.40
2009,05,05,19,01,12.40
2009,05,05,19,02,12.40
2009,05,05,19,03,12.40
2009,05,05,19,04,12.40
2009,05,05,19,05,12.40
2009,05,05,19,06,12.50
2009,05,05,19,07,12.50
2009,05,05,19,08,12.50
2009,05,05,19,09,12.60
2009,05,05,19,10,12.60
2009,05,05,19,11,12.60
2009,05,05,19,12,12.60
2009,05,05,19,13,12.70
2009,05,05,19,14,12.70
2009,05,05,19,15,12.70
2009,05,05,19,16,12.70
2009,05,05,19,17,12.70
2009,05,05,19,18,12.70
2009,05,05,19,19,12.70
2009,05,05,19,20,12.70
2009,05,05,19,21,12.70
2009,05,05,19,22,12.70
2009,05,05,19,23,12.70
2009,05,05,19,24,12.70
2009,05,05,19,25,12.70
2009,05,05,19,26,12.70
